Regional Weather Roundup
Issued by NWS Charleston, SC

Current Version | Previous Version | Text Only | Print | Product List | Glossary Off
Versions: 1 2 3 4 5 6 7 8 9 10 11 12 13 14 15 16 17 18 19 20 21 22 23 24 25 26 27 28 29 30 31 32 33 34 35 36 37 38 39 40 41 42 43 44 45 46 47 48 49 50

000
ASUS42 KCHS 241525
RWRCHS

REGIONAL WEATHER ROUNDUP
NATIONAL WEATHER SERVICE CHARLESTON SC
1000 AM EST WED DEC 24 2014

NOTE: "FAIR" INDICATES FEW OR NO CLOUDS BELOW 12,000 FEET WITH NO
SIGNIFICANT WEATHER AND/OR OBSTRUCTIONS TO VISIBILITY.

NOT ALL STATIONS ARE QUALITY CONTROLLED BY THE NATIONAL
WEATHER SERVICE. USE DATA WITH CAUTION...ESPECIALLY
DEWPOINT OBSERVATIONS.

SCZ027-030-031-034>040-042>050-241600-
...SOUTHEAST SOUTH CAROLINA...

CITY           SKY/WX    TMP DP  RH WIND       PRES   REMARKS
N CHARLESTON   LGT RAIN  71  68  90 S20G31    29.84S FOG
WATERFRONT PRK   N/A     68 N/A N/A S15G22      N/A
MOUNT PLEASANT CLOUDY    72  72 100 S13G20    29.85S FOG
PINOPOLIS        N/A     72  68  88 MISG      29.75R
MONCKS CORNER  CLOUDY    72  66  83 S16G24    29.82
SUMMERVILLE    LGT RAIN  70  68  94 S10G21    29.82S
BEAUFORT MCAS  TSTM      67  65  93 S12G20    29.84R FOG
BEAUFORT ARPT  CLOUDY    64  64 100 S12G23    29.83R FOG
HILTON HEAD IS CLOUDY    66  66 100 S14G23    29.84R
WALTERBORO     CLOUDY    70 N/A N/A S17G23    29.82R
ALLENDALE      CLOUDY    70  68  94 S8G15     29.78R

...SOUTHERN MIDLANDS AND PEE DEE...

CITY           SKY/WX    TMP DP  RH WIND       PRES   REMARKS
GEORGETOWN     NOT AVBL
KINGSTREE      NOT AVBL
ORANGEBURG     CLOUDY    69  65  86 S16G25    29.76F
BARNWELL       RAIN      68  66  94 SW8       29.80R
AIKEN          HVY RAIN  59  59 100 CALM      29.80F
MANNING        CLOUDY    68 N/A N/A S12       29.80S
COLUMBIA       HVY RAIN  57  55  93 W13       29.81R FOG
SUMTER         LGT RAIN  59  57  94 N2        29.76S
FLORENCE       LGT RAIN  68  65  90 S9        29.80S FOG
MYRTLE BEACH   RAIN      70  66  88 SW15      29.85R FOG
N MYRTLE BEACH HVY RAIN  68  66  93 SW13      29.84R FOG

$$

GAZ063-065-086>088-099>101-113>116-118-119-134>141-150-241600-
...SOUTHEAST GEORGIA...

CITY           SKY/WX    TMP DP  RH WIND       PRES   REMARKS
SAVANNAH ARPT  RAIN      68  65  90 S17       29.83R
HUNTER AAF     LGT RAIN  66  66 100 S8G17     29.82R
FORT STEWART   CLOUDY    70  66  88 S9        29.79F
STATESBORO     CLOUDY    69  69 100 S15G21    29.79R
SYLVANIA       CLOUDY    69  68  98 S10G20    29.79R
CLAXTON        CLOUDY    70  68  94 S10G23    29.79S

...CSRA...CENTRAL AND FAR SOUTHEAST GEORGIA...

CITY           SKY/WX    TMP DP  RH WIND       PRES   REMARKS
THOMSON        CLOUDY    60  60 100 CALM      29.78F
AUGUSTA-BUSH   HVY RAIN  59  59 100 CALM      29.77R FOG
AUGUSTA-DANIEL LGT RAIN  61  60  97 E9        29.76S VSB 3/4
SWAINSBORO     CLOUDY   N/A N/A N/A S5        29.79R
VIDALIA        HVY RAIN  68  66  94 SW9G16    29.79R
EASTMAN        RAIN      67  67 100 SE7       29.78R
HAZLEHURST     RAIN      70  70 100 SW5       29.78R
ALMA           CLOUDY    71  68  90 S16G28    29.79R
WAYCROSS       RAIN      73  71  93 S15       29.81R
JESUP          CLOUDY    72  70  94 S7        29.82S
BAXLEY         CLOUDY    72  70  94 S17G28    29.77S
BRUNSWICK      CLOUDY    70  64  83 S6        29.85R
SAINT SIMONS   CLOUDY    66  64  93 S9        29.84S

$$

SCZ027-028-034-036>038-045-046-048>050-GAZ119-141-241600-
...LAKE AND SUPPLEMENTAL COASTAL OBSERVATIONS...

STATION/POSITION TIME  TEMP    WIND        PRES    WAVE   SWELL
                       AIR SEA DIR/SP/G            HT/PER HT/PER/DIR
                 (UTC) (F)     (DEG/KT/KT) (MB)    (FT/S) (FT/S/D)
UPR LAKE MARION  NOT AVBL
WINYAH BAY       1500   68     220/ 12     1009.0S
LAKE MURRAY      1400   54     300/  9/ 12 1007.8R
ACE BASIN NERRS  1500   67     170/  3     1010.0S
FORT PULASKI     1500   63 56  180/ 11/ 18 1010.5R
SAPELO ISLAND    1500   64     180/ 13     1010.0S

$$

ANZ835-935-AMZ111-154-330-350-352-354-370-450-454-472-241600-
...C-MAN AND BUOY OBSERVATIONS...

STATION/POSITION TIME  TEMP    WIND        PRES    WAVE   SWELL
                       AIR SEA DIR/SP/G            HT/PER HT/PER/DIR
                 (UTC) (F)     (DEG/KT/KT) (MB)    (FT/S) (FT/S/D)
BUOY 41004       1500   77 73  180/ 23/ 29 1009.9R   8/ 7
BUOY 41008       1500   65 59  180/ 19/ 23 1010.2R   5/ 7
FOLLY BEACH CMAN 1500   61     190/ 10/ 11 1011.1R
CAPERS NEARSHORE 1400   60     270/ 10/ 12   N/A
FRIPP NEARSHORE  NOT AVBL


STATION/POSITION TIME  TEMP    WIND        PRES    WAVE   SWELL
                       AIR SEA DIR/SP/G            HT/PER HT/PER/DIR
                 (UTC) (F)     (DEG/KT/KT) (MB)    (FT/S) (FT/S/D)
5E ST. MARYS GA  1500      61                N/A     5/ 6
FRYING PAN BUOY  1500   74 70  180/ 23/ 29 1011.5S   8/ 7
BUOY 41025       1500   75                 1013.3S   7/ 6
CAPE LOOKOUT NC  1500   64     160/ 17/ 18 1012.1F
BUOY 41002       1354   74 72  190/ 16/ 17 1017.5    5/ 5   2/ 90/10
BUOY 41010       1500   77 77  170/ 21/ 25 1014.8F   5/ 6   2/100/10
ST AUGUSTINE FL  1500   74     190/ 16/ 18 1012.4F


$$



USA.gov is the U.S. government's official web portal to all federal, state and local government web resources and services.